Location: ??????
(30.5519°N, 47.7720°E)
Time: 17:48:41
(UTC+00:00)

CZ-4 R/B - Pass Details

Date: 24 January 2021
Orbit: 531 x 599 km, 97.7° (Epoch: 02 March)

Event Time Altitude Azimuth Distance (km) Brightness Sun altitude
Rises 16:11:05 0° 191° (S) 2,802 5.2 -24.2°
Reaches altitude 10° 16:13:29 10° 203° (SSW) 1,896 4.4 -24.7°
Maximum altitude 16:17:01 28° 262° (W) 1,099 3.5 -25.5°
Drops below altitude 10° 16:20:32 10° 322° (NW) 1,872 4.4 -26.2°
Sets 16:22:54 0° 334° (NNW) 2,760 5.1 -26.8°
